This demonstration page uses our WeatherBlox Daily Observations layout. Learn more.

Left ArrowRight Arrow

36.17497, -115.13722

Hourly Observations for January 7, 2016

Temp ( °F °C ) Dew Point ( °F °C ) Humidity (%) Winds ( mph kmh ) Pressure ( in mb ) Visibility ( mi km ) Precip ( " mm )
12:53 am 00:53 Partly Cloudy 46 7.8 34 1.1 63 63 S 8 13 29.77 1008 10 16 N/A
1:53 am 01:53 Cloudy 47 8.3 34 1.1 61 61 S 13 20 29.78 1008 10 16 N/A
2:53 am 02:53 Partly Cloudy 46 7.8 33 0.6 61 61 SSW 9 15 29.78 1008 10 16 N/A
3:53 am 03:53 Mostly Clear 46 7.8 33 0.6 61 61 SSW 16 26 29.76 1008 10 16 N/A
4:53 am 04:53 Clear 47 8.3 30 -1.1 52 52 SW 12 19 29.78 1008 10 16 N/A
5:53 am 05:53 Clear 45 7.2 31 -0.6 58 58 SSW 9 15 29.79 1009 10 16 N/A
6:53 am 06:53 Sunny 46 7.8 30 -1.1 54 54 N N/A 29.80 1009 10 16 N/A
7:53 am 07:53 Sunny 43 6.1 33 0.6 68 68 W 8 13 29.83 1010 10 16 N/A
8:53 am 08:53 Sunny 47 8.3 33 0.6 59 59 NW 5 7 29.85 1011 10 16 N/A
9:53 am 09:53 Partly Cloudy 49 9.4 33 0.6 55 55 N N/A 29.85 1011 10 16 N/A
10:53 am 10:53 Sunny 49 9.4 32 undefined 52 52 VRB 6 9 29.83 1010 10 16 N/A
11:53 am 11:53 Mostly Sunny 52 11.1 30 -1.1 43 43 WNW 6 9 29.78 1009 10 16 N/A
12:53 pm 12:53 Partly Cloudy 52 11.1 29 -1.7 41 41 VRB 5 7 29.76 1008 10 16 N/A
1:53 pm 13:53 Mostly Sunny 50 10 32 undefined 50 50 N 18 30 29.76 1008 10 16 N/A
2:53 pm 14:53 Cloudy 49 9.4 32 undefined 52 52 NNW 18 30 29.76 1008 10 16 N/A
3:53 pm 15:53 Partly Cloudy 51 10.6 31 -0.6 46 46 N 17 28 29.77 1008 10 16 N/A
4:53 pm 16:53 Mostly Clear 48 8.9 33 0.6 56 56 N 10 17 29.78 1009 10 16 N/A
5:53 pm 17:53 Mostly Cloudy 48 8.9 33 0.6 56 56 N 14 22 29.80 1009 10 16 N/A
6:53 pm 18:53 Cloudy 47 8.3 33 0.6 59 59 N 13 20 29.81 1010 10 16 N/A
7:53 pm 19:53 Cloudy 47 8.3 34 1.1 61 61 N 12 19 29.82 1010 10 16 N/A
8:53 pm 20:53 Cloudy 46 7.8 34 1.1 63 63 N 13 20 29.82 1010 10 16 N/A
9:53 pm 21:53 Cloudy 46 7.8 34 1.1 63 63 NW 15 24 29.84 1011 10 16 N/A
10:53 pm 22:53 Cloudy 45 7.2 35 1.7 68 68 NNW 3 6 29.85 1011 10 16 N/A
11:53 pm 23:53 Cloudy 45 7.2 34 1.1 66 66 N 9 15 29.84 1011 10 16 N/A

Powered by AerisWeather